Location: Newark
(27.9675°N, 86.8869°E)
Time: 14:29:56
(UTC+00:00)

Courier 1B Rocket - All Passes

Search period start: 15 October 2019 00:00
Search period end: 25 October 2019 00:00
Orbit: 920 x 1202 km, 28.2° (Epoch: 14 October)

Date Brightness Start Highest point End Pass type
(mag) Time Alt. Az. Time Alt. Az. Time Alt. Az.
15 Oct - 01:02:17 10° W 01:08:48 88° N 01:15:49 10° E daylight
15 Oct - 02:55:43 10° W 03:02:30 80° S 03:09:49 10° ESE daylight
15 Oct - 04:49:22 10° W 04:56:01 43° SSW 05:03:04 10° SE daylight
15 Oct - 06:45:08 10° WSW 06:49:17 16° SSW 06:53:31 10° S daylight
15 Oct - 20:18:00 10° S 20:21:34 16° SSE 20:25:08 10° ESE visible
15 Oct - 22:08:29 10° SW 22:14:25 47° SSE 22:20:33 10° E visible
16 Oct - 00:01:21 10° W 00:07:42 86° S 00:14:29 10° E daylight
16 Oct - 01:54:44 10° W 02:01:20 89° S 02:08:27 10° E daylight
16 Oct - 03:48:12 10° W 03:54:54 55° SSW 04:02:05 10° SE daylight
16 Oct - 05:42:48 10° WSW 05:48:12 22° SSW 05:53:49 10° SSE daylight
16 Oct - 21:08:01 10° SW 21:13:34 34° SSE 21:19:11 10° E visible
16 Oct - 23:00:25 10° WSW 23:06:40 75° SSE 23:13:12 10° E visible
17 Oct - 00:53:46 10° W 01:00:12 87° N 01:07:05 10° E daylight
17 Oct - 02:47:10 10° W 02:53:47 67° SSW 03:00:55 10° ESE daylight
17 Oct - 04:41:08 10° W 04:47:07 31° SSW 04:53:30 10° SSE daylight
17 Oct - 20:07:49 10° SSW 20:12:44 24° SSE 20:17:37 10° E visible
17 Oct - 21:59:34 10° WSW 22:05:43 62° SSE 22:11:59 10° E visible
17 Oct - 23:52:47 10° W 23:59:06 88° N 00:05:46 10° E visible
18 Oct - 01:46:11 10° W 01:52:41 79° S 01:59:40 10° ESE daylight
18 Oct - 03:39:48 10° W 03:46:05 41° SSW 03:52:47 10° SE daylight
18 Oct - 05:35:41 10° WSW 05:39:17 14° SSW 05:42:59 10° S daylight
18 Oct - 19:08:06 10° S 19:11:54 16° SSE 19:15:38 10° ESE night (unlit)
18 Oct - 20:58:50 10° SW 21:04:48 47° SSE 21:10:47 10° E visible
18 Oct - 22:51:48 10° W 22:58:03 87° S 23:04:32 10° E visible
19 Oct - 00:45:13 10° W 00:51:36 88° S 00:58:22 10° E daylight
19 Oct - 02:38:40 10° W 02:45:02 52° SSW 02:51:52 10° SE daylight
19 Oct - 04:33:18 10° WSW 04:38:15 21° SSW 04:43:26 10° SSE daylight
19 Oct - 18:10:11 10° SSE 18:11:01 10° SSE 18:11:51 10° SE night (unlit)
19 Oct - 19:58:16 10° SW 20:03:56 35° SSE 20:09:31 10° E visible
19 Oct - 21:50:50 10° WSW 21:57:03 76° SSE 22:03:22 10° E visible
19 Oct - 23:44:15 10° W 23:50:32 87° N 23:57:06 10° E visible
20 Oct - 01:37:39 10° W 01:44:00 65° SSW 01:50:47 10° ESE daylight
20 Oct - 03:31:38 10° W 03:37:14 29° SSW 03:43:11 10° SSE daylight
20 Oct - 18:57:56 10° SSW 19:03:04 25° SSE 19:08:05 10° E night (unlit)
20 Oct - 20:49:54 10° WSW 20:56:07 62° SSE 21:02:16 10° E visible
20 Oct - 22:43:13 10° W 22:49:29 88° N 22:55:53 10° E visible
21 Oct - 00:36:41 10° W 00:42:59 78° S 00:49:37 10° ESE daylight
21 Oct - 02:30:18 10° W 02:36:16 38° SSW 02:42:35 10° SE daylight
21 Oct - 04:26:28 10° SW 04:29:22 13° SSW 04:32:22 10° S daylight
21 Oct - 17:58:01 10° S 18:02:12 18° SSE 18:06:15 10° ESE night (unlit)
21 Oct - 19:49:03 10° SW 19:55:11 48° SSE 20:01:09 10° E visible
21 Oct - 21:42:11 10° W 21:48:27 87° S 21:54:46 10° E visible
21 Oct - 23:35:42 10° W 23:41:56 87° SSW 23:48:26 10° E visible
22 Oct - 01:29:11 10° W 01:35:17 50° SSW 01:41:45 10° SE daylight
22 Oct - 03:23:55 10° WSW 03:28:24 19° SSW 03:33:05 10° SSE daylight
22 Oct - 16:59:12 10° SSE 17:01:16 11° SSE 17:03:19 10° SE night (unlit)
22 Oct - 18:48:21 10° SW 18:54:17 36° SSE 18:59:59 10° E night (unlit)
22 Oct - 20:41:07 10° WSW 20:47:28 77° SSE 20:53:42 10° E visible
22 Oct - 22:34:39 10° W 22:40:55 87° N 22:47:16 10° E visible
23 Oct - 00:28:09 10° W 00:34:20 64° SSW 00:40:47 10° ESE daylight
23 Oct - 02:22:11 10° W 02:27:27 27° SSW 02:32:59 10° SSE daylight
23 Oct - 17:47:52 10° SSW 17:53:22 27° SSE 17:58:37 10° E night (unlit)
23 Oct - 19:40:04 10° WSW 19:46:30 64° SSE 19:52:40 10° E night (unlit)
23 Oct - 21:33:34 10° W 21:39:53 87° N 21:46:10 10° E visible
23 Oct - 23:27:07 10° W 23:33:20 77° SSW 23:39:44 10° ESE visible
24 Oct - 01:20:50 10° W 01:26:32 36° SSW 01:32:29 10° SE daylight
24 Oct - 03:17:30 10° SW 03:19:33 11° SSW 03:21:38 10° SSW daylight
24 Oct - 16:47:46 10° SSW 16:52:26 19° SSE 16:56:54 10° ESE night (unlit)
24 Oct - 18:39:07 10° SW 18:45:32 50° SSE 18:51:37 10° E night (unlit)
24 Oct - 20:32:25 10° W 20:38:52 88° S 20:45:07 10° E visible
24 Oct - 22:26:03 10° W 22:32:21 87° S 22:38:39 10° E visible
